Location: Melbourne
(37.8666°S, 145.1333°E)
Time: 13:46:24
(UTC+10:00)

Iridium 21 - Visible Passes

Search period start: 28 June 2016 00:00
Search period end: 08 July 2016 00:00
Orbit: 776 x 779 km, 86.4° (Epoch: 27 June)

Date Brightness Start Highest point End Pass type
(mag) Time Alt. Az. Time Alt. Az. Time Alt. Az.
28 Jun 7.1 05:45:21 10° SSE 05:50:13 36° E 05:55:00 10° NNE visible
28 Jun 5.4 18:39:41 10° N 18:44:56 80° E 18:50:14 10° S visible
28 Jun 8.6 20:25:13 10° W 20:26:17 11° WSW 20:27:21 10° WSW visible
29 Jun 8.1 05:12:40 10° SSE 05:16:27 20° ESE 05:20:12 10° ENE visible
29 Jun 5.9 06:52:22 10° SSW 06:57:21 44° W 07:02:18 10° NNW visible
29 Jun 5.9 18:06:36 10° NNE 18:11:31 42° E 18:16:28 10° SSE visible
29 Jun 7.9 19:48:33 10° NW 19:52:24 20° WSW 19:56:16 10° SSW visible
30 Jun 8.7 04:42:14 10° ESE 04:42:33 10° ESE 04:42:52 10° ESE visible
30 Jun 5.5 06:18:37 10° S 06:23:56 83° W 06:29:11 10° N visible
30 Jun 6.7 17:34:11 10° NE 17:38:13 23° E 17:42:16 10° SSE visible
30 Jun 7.0 19:13:48 10° NNW 19:18:38 37° W 19:23:33 10° SSW visible
01 Jul 6.3 05:45:13 10° S 05:50:24 52° E 05:55:30 10° NNE visible
01 Jul 5.8 18:39:48 10° N 18:45:01 71° W 18:50:19 10° S visible
02 Jul 7.5 05:12:11 10° SSE 05:16:43 28° E 05:21:11 10° NE visible
02 Jul 6.3 06:52:47 10° SSW 06:57:21 30° W 07:01:51 10° NW visible
02 Jul 5.6 18:06:22 10° NNE 18:11:32 62° E 18:16:45 10° S visible
02 Jul 8.4 19:50:01 10° WNW 19:52:42 14° WSW 19:55:23 10° SW visible
03 Jul 8.3 04:39:51 10° SE 04:42:54 15° ESE 04:45:56 10° ENE visible
03 Jul 5.6 06:18:49 10° S 06:24:00 56° W 06:29:06 10° NNW visible
03 Jul 6.3 17:33:32 10° NNE 17:38:10 33° E 17:42:51 10° SSE visible
03 Jul 7.7 19:14:32 10° NW 19:18:52 26° W 19:23:15 10° SSW visible
04 Jul 5.6 05:45:13 10° S 05:50:32 78° E 05:55:46 10° N visible
04 Jul 6.6 18:40:07 10° NNW 18:45:10 48° W 18:50:18 10° S visible
05 Jul 6.8 05:11:56 10° SSE 05:16:56 41° E 05:21:51 10° NNE visible
05 Jul 6.7 06:53:26 10° SW 06:57:18 21° W 07:01:07 10° NW visible
05 Jul 5.6 18:06:21 10° N 18:11:36 90° NW 18:16:56 10° S visible
06 Jul 7.8 04:39:07 10° SSE 04:43:12 22° ESE 04:47:14 10° NE visible
06 Jul 6.0 06:19:09 10° SSW 06:24:00 38° W 06:28:49 10° NNW visible
06 Jul 5.8 17:33:09 10° NNE 17:38:10 48° E 17:43:14 10° SSE visible
06 Jul 8.2 19:15:37 10° WNW 19:19:08 18° WSW 19:22:42 10° SW visible
07 Jul 8.5 04:07:28 10° SE 04:09:20 12° ESE 04:11:11 10° E visible
07 Jul 5.4 05:45:20 10° S 05:50:38 73° W 05:55:50 10° N visible
07 Jul 7.3 18:40:40 10° NW 18:45:22 33° W 18:50:07 10° SSW visible
